Temperature
13 12 12 12 12 12 12 11 11 11 11 10 10 10 10 10 10 10 10 10 9 9 9 8 8 8 8 9 9 9 9 9 8 8 8 8 8 7 7 7 7 6 6
13 12 12 12 12 12 11 11 11 10 10 10 10 10 10 10 10 10 10 9 9 9 9 8 8 8 8 8 9 9 9 9 8 8 8 8 7 7 7 7 6 6 6
12 12 12 12 12 11 11 11 10 10 10 10 10 10 10 10 10 10 10 9 9 9 9 9 9 8 8 8 9 9 9 9 8 8 8 8 8 7 7 7 6 6 6
12 12 12 12 12 11 11 11 10 10 10 10 9 9 9 9 9 9 9 9 9 9 9 9 9 9 9 9 9 9 9 9 8 8 8 8 8 7 7 6 6 6 6
12 12 12 12 11 11 11 10 10 10 10 10 9 9 9 9 9 9 9 9 9 9 9 9 9 9 9 9 9 9 9 9 8 8 8 8 7 7 7 6 6 6 5
12 12 12 12 11 11 11 10 10 10 10 9 9 9 9 9 9 9 9 9 9 9 9 9 9 9 9 9 9 9 8 8 8 8 8 7 7 7 6 6 6 6 5
12 12 12 11 11 11 11 11 10 10 9 9 9 8 8 8 9 9 9 9 9 9 9 9 9 9 9 9 9 9 8 8 8 8 7 7 7 6 6 6 6 5 5
12 12 12 12 11 11 11 10 10 10 9 9 9 8 8 8 9 9 9 9 9 9 9 9 9 9 9 9 9 9 8 8 8 7 7 7 6 6 6 5 5 5 5
12 12 12 12 12 11 11 11 10 10 10 9 9 9 9 9 9 9 9 9 9 9 9 9 9 9 9 9 9 8 8 8 8 7 7 7 6 6 5 5 5 4 4
12 12 12 12 12 12 11 11 11 10 10 10 9 9 9 9 9 9 9 9 9 9 9 9 9 9 9 9 8 8 8 8 8 7 7 6 6 6 5 5 4 4 4
12 12 12 12 12 12 11 11 11 10 10 10 10 9 9 9 9 9 9 10 9 10 9 9 9 9 9 9 8 8 8 8 7 7 7 6 6 5 5 5 4 4 3
12 12 12 12 12 12 12 11 11 10 10 10 10 10 9 9 9 9 9 10 10 9 9 9 9 9 9 8 8 8 8 7 7 7 6 6 6 5 5 4 4 3 3
13 14 13 13 12 12 12 11 11 10 10 10 10 10 9 9 9 9 9 9 9 9 9 9 9 9 8 8 8 8 7 7 7 6 6 5 5 5 4 4 3 3 2
15 15 14 13 13 12 12 11 11 10 10 10 10 10 9 9 9 9 8 8 8 8 8 9 9 9 8 8 8 7 7 7 6 6 5 5 5 4 4 3 3 2 2
15 14 14 13 13 12 12 11 11 10 10 10 10 9 9 9 9 8 8 8 8 7 8 8 8 8 8 8 7 7 7 6 6 5 5 5 4 4 3 3 2 2 1
14 14 13 13 13 12 12 11 11 10 10 10 10 9 9 9 9 8 8 8 8 7 7 8 8 8 7 7 7 7 6 6 5 5 5 4 3 3 3 2 2 1 1
14 13 13 13 12 12 11 11 11 10 10 10 9 9 9 9 9 8 8 8 8 7 7 7 7 7 7 7 7 6 6 5 5 5 4 3 3 2 2 1 1 1 0
13 13 13 12 12 12 11 11 11 10 10 10 9 9 9 9 8 8 8 8 8 7 7 7 7 7 7 6 6 6 5 5 4 4 3 3 2 2 1 1 1 0 -0
13 13 12 12 12 12 11 11 10 10 10 10 9 9 9 9 8 8 8 8 8 7 7 7 7 6 6 6 5 5 5 4 4 3 3 3 2 1 1 1 0 -0 -1
13 12 12 12 12 11 11 11 10 10 10 9 9 9 9 9 8 8 8 8 8 7 7 7 6 6 6 5 5 5 4 4 4 3 3 2 2 1 1 0 -0 -1 -2
12 12 12 12 11 11 11 11 10 10 10 9 9 9 9 9 8 8 8 8 7 7 7 6 6 6 5 5 5 4 4 3 3 2 2 2 1 1 0 -0 -1 -2 -2
12 12 12 11 11 11 11 11 10 10 9 9 9 9 9 8 8 8 8 8 7 7 7 6 6 5 5 5 4 4 3 2 2 2 1 1 0 -0 -1 -1 -2 -2 -3
12 12 12 11 11 11 11 10 10 10 9 9 9 9 9 8 8 8 7 7 7 7 6 6 5 5 5 4 4 3 2 2 1 1 0 0 -0 -0 -1 -2 -2 -3 -4
12 12 11 11 11 11 11 10 10 9 9 9 9 9 8 8 8 8 7 7 7 6 6 5 5 5 4 3 3 2 2 1 1 0 -0 -1 -1 -1 -2 -2 -3 -4 -4
11 11 11 11 11 11 10 10 9 9 9 9 9 8 8 8 8 7 7 7 6 6 5 5 4 4 3 3 2 2 1 1 0 -0 -1 -2 -2 -2 -2 -2 -3 -4 -5
11 11 11 11 11 10 10 10 9 9 9 9 8 8 8 8 7 7 7 6 6 5 5 4 4 3 3 2 2 1 1 -0 -1 -2 -2 -3 -3 -4 -4 -3 -4 -5 -5
Wind_Speed
8 9 9 11 11 11 10 8 6 6 5 6 7 9 9 10 10 9 8 8 8 7 7 6 7 6 6 6 7 7 7 7 7 8 8 8 9 9 10 10 11 11 12
12 10 8 9 10 12 11 9 7 6 5 6 6 8 9 10 10 9 8 7 7 6 6 6 6 5 5 5 5 5 5 5 6 6 7 7 8 8 9 10 10 11 11
16 12 8 7 10 13 12 9 7 6 4 4 4 6 8 9 9 9 8 7 6 5 4 5 5 4 3 3 3 3 3 4 4 5 6 6 7 8 8 9 10 10 11
20 14 9 8 12 12 9 5 4 4 4 4 4 3 4 6 8 9 8 8 7 5 5 4 4 3 3 2 1 1 1 2 3 4 5 6 7 7 8 9 10 11 12
21 15 10 10 13 9 6 6 4 4 4 4 4 3 3 4 5 7 7 8 8 8 6 5 5 4 3 2 2 1 1 2 3 4 5 6 7 8 9 10 10 11 12
20 17 11 11 12 7 6 5 5 4 4 5 4 2 1 2 4 5 6 8 9 10 9 8 6 5 5 4 4 3 3 3 4 4 5 6 7 9 9 10 11 12 13
20 16 10 10 10 9 8 8 5 5 4 4 4 2 2 1 2 3 5 6 7 10 10 10 9 8 7 7 6 5 5 5 5 6 6 7 9 10 10 11 12 13 14
19 16 12 11 10 8 9 9 6 5 4 4 4 3 1 3 3 3 3 4 6 8 9 11 11 11 10 9 8 7 7 7 7 7 8 9 10 11 11 12 13 14 15
18 16 14 12 11 10 10 10 9 8 6 4 4 5 4 5 3 2 3 4 5 4 6 9 11 12 12 11 10 9 8 8 9 9 9 10 11 12 12 13 14 15 15
16 17 16 14 12 10 10 11 9 7 8 6 4 3 3 4 3 2 3 3 4 6 6 6 9 12 13 13 12 11 11 10 10 10 11 11 12 12 13 14 15 15 16
14 16 16 14 13 11 12 12 10 9 7 7 5 4 3 2 2 3 3 3 3 5 5 6 8 10 13 14 13 13 12 12 11 11 11 12 13 13 14 15 15 16 17
12 15 15 14 13 12 12 11 12 11 10 8 7 5 5 4 4 4 4 4 4 4 4 4 6 9 12 13 14 13 13 12 12 12 12 12 13 14 15 15 16 17 17
13 17 16 15 13 12 12 11 12 11 11 10 10 7 6 5 4 4 4 3 3 3 2 3 5 9 11 12 13 14 13 13 13 12 12 13 13 14 15 16 16 17 18
15 14 15 14 13 12 12 12 11 11 11 11 12 10 7 7 5 5 5 4 2 2 3 5 2 7 10 12 14 14 13 14 13 13 13 13 13 14 15 15 16 17 18
11 12 14 14 13 13 13 13 11 12 11 12 11 11 8 7 6 6 5 5 5 4 5 5 4 4 8 11 13 12 13 13 13 13 13 13 14 14 15 16 17 17 18
12 13 14 15 14 13 13 13 10 10 12 11 9 10 10 7 6 6 6 5 5 6 5 4 5 3 3 7 10 11 12 12 12 12 13 13 14 15 15 16 17 17 18
15 15 16 15 15 15 14 14 13 13 14 12 11 12 12 9 8 7 6 5 5 5 6 4 3 2 3 3 4 7 9 9 10 12 13 13 14 14 15 16 16 17 18
16 16 15 15 16 15 15 16 15 14 14 14 13 12 12 9 9 7 7 7 6 6 6 7 4 3 4 3 2 3 4 7 9 11 12 12 13 14 15 15 15 16 17
16 16 16 17 16 16 16 15 14 14 14 13 13 13 12 11 11 8 8 8 6 5 5 5 4 2 2 1 1 2 3 4 6 9 10 11 13 14 14 15 15 15 16
16 16 16 16 16 15 15 14 13 13 12 11 11 12 12 12 12 11 9 9 7 6 4 4 4 2 2 1 1 2 3 3 4 5 7 9 11 12 13 14 14 15 15
15 15 14 14 13 13 13 14 13 12 12 11 10 10 11 12 13 11 9 8 8 6 5 4 4 2 2 2 3 2 3 3 3 2 3 5 6 7 9 12 13 14 15
13 14 15 14 14 12 15 18 15 12 11 11 11 9 9 11 12 13 12 12 11 9 8 6 5 5 5 4 3 2 2 1 3 2 2 4 3 4 6 8 11 13 14
12 13 14 14 14 14 17 18 18 13 11 11 11 10 7 8 10 8 9 10 10 10 10 8 7 7 5 5 4 3 3 3 3 2 1 3 2 4 5 9 11 12 14
12 12 12 13 12 13 17 18 18 13 10 10 10 10 9 8 8 9 7 6 5 5 6 6 6 5 5 4 4 3 3 1 1 2 0 3 2 4 5 7 10 12 14
10 10 11 12 12 12 17 18 16 10 8 8 8 8 9 8 11 12 9 7 5 3 4 6 5 3 3 3 4 3 2 1 2 2 0 1 2 4 4 4 8 12 14
9 9 8 10 11 11 16 18 18 9 9 7 6 7 10 10 11 13 10 9 8 5 4 3 3 2 2 2 3 3 3 1 1 2 1 1 2 3 4 3 4 8 11
Wind_Direction
155 153 155 156 156 158 159 158 161 162 157 152 147 143 139 140 138 130 125 121 122 122 124 120 114 107 102 93 85 76 67 58 51 47 42 37 32 26 21 18 16 12 8
162 160 161 164 167 171 172 170 170 167 161 151 146 147 147 145 144 140 134 128 129 131 134 132 122 116 109 101 92 80 66 56 46 40 34 28 23 18 13 10 8 4 1
167 166 166 171 177 179 174 168 164 159 146 142 145 147 149 152 152 151 147 142 139 140 143 149 143 135 125 114 99 84 65 48 36 27 22 16 11 6 1 360 358 354 352
172 169 171 178 181 178 170 159 155 149 148 144 147 153 150 154 158 162 160 159 158 157 159 164 167 165 158 145 126 91 57 31 17 9 3 359 355 351 350 350 347 345 343
175 173 175 178 177 173 169 168 157 151 151 151 151 149 157 163 168 169 172 177 177 176 175 179 184 189 194 203 219 249 298 331 337 341 341 340 339 339 339 339 338 337 335
178 175 176 176 174 169 171 166 156 152 152 152 139 124 165 190 178 181 185 187 190 191 190 190 193 202 213 223 238 259 275 294 306 314 320 323 326 328 329 330 330 329 329
179 177 177 176 176 178 176 165 152 155 151 137 109 70 356 324 229 214 194 188 197 202 202 203 205 210 219 228 239 257 271 282 290 300 309 313 316 319 321 323 323 322 323
182 182 177 180 179 176 174 172 157 155 161 158 139 127 247 308 282 236 216 209 206 203 208 212 212 215 219 224 235 249 263 276 284 292 300 306 309 313 315 317 318 318 319
185 184 182 180 182 182 185 183 174 166 172 187 168 152 166 217 253 283 240 226 216 212 215 216 217 220 221 222 228 238 251 265 277 288 295 300 305 309 311 313 314 314 315
186 186 184 184 185 187 187 188 184 175 165 180 196 189 164 156 166 246 289 255 232 226 224 218 218 220 219 220 225 235 246 257 271 282 291 297 301 305 309 311 314 315 316
190 189 188 188 190 192 191 189 186 185 181 178 178 169 159 145 146 163 238 271 266 243 228 221 218 220 222 223 227 235 244 254 265 276 284 292 298 303 306 309 312 313 315
194 195 193 193 194 194 194 194 192 191 193 186 186 179 170 171 185 176 201 230 245 261 241 229 222 224 225 225 228 234 240 249 261 271 279 287 294 299 303 307 310 312 313
200 201 197 197 197 195 193 190 194 197 195 195 196 199 196 194 169 166 176 207 235 267 279 254 231 226 226 226 230 235 240 248 257 266 275 283 290 295 300 304 308 310 312
204 196 197 199 197 193 193 194 199 200 200 203 205 202 203 205 185 175 173 172 214 271 277 262 257 228 227 226 232 233 238 247 255 263 271 279 286 293 298 303 307 309 311
195 190 196 198 196 194 195 194 203 204 203 207 208 205 208 205 199 197 184 176 184 227 253 248 247 244 229 230 234 231 237 247 257 264 271 278 285 292 296 300 305 307 309
191 190 195 199 198 197 196 196 201 201 204 208 204 205 210 207 203 200 198 195 194 202 233 240 233 244 233 236 238 234 240 250 258 266 272 279 287 292 296 300 304 307 310
193 195 197 198 200 200 199 202 206 201 206 208 204 207 212 203 203 204 200 197 201 195 228 252 236 233 224 242 248 238 243 250 261 269 274 280 288 294 299 302 305 308 310
196 197 196 198 201 202 202 205 207 204 206 209 207 206 210 203 206 204 203 206 208 203 211 241 247 233 230 234 242 249 254 258 262 269 276 285 291 296 302 305 307 308 310
195 194 195 199 201 202 203 206 206 206 208 209 205 206 206 200 208 206 204 208 211 206 205 219 241 232 239 241 253 269 273 269 271 273 280 286 290 297 304 307 310 312 313
194 195 196 198 199 199 200 202 203 205 206 206 203 204 203 203 208 205 205 208 202 199 199 211 230 235 235 237 213 251 275 269 279 278 280 287 292 300 306 310 313 315 317
194 193 193 194 194 195 199 197 199 200 201 202 201 203 204 202 203 203 202 201 195 200 200 209 224 223 226 222 234 223 248 285 288 271 291 289 291 295 305 311 314 317 320
189 188 191 192 193 197 194 191 192 196 197 198 199 200 199 199 201 200 199 195 191 197 205 208 218 224 235 227 223 218 222 266 283 274 273 286 283 287 299 306 311 318 322
186 189 191 191 194 195 187 186 188 191 194 197 198 196 194 195 194 198 198 195 197 198 198 199 210 223 224 219 198 208 216 224 246 268 295 281 295 287 297 304 311 319 323
186 190 190 191 192 191 183 181 182 188 190 194 194 193 192 189 187 183 182 190 197 203 203 201 207 216 215 199 185 192 201 223 278 306 317 273 293 293 305 302 306 319 325
182 186 185 186 188 188 181 178 173 183 187 189 186 185 184 186 182 175 176 179 181 192 170 172 176 167 159 156 136 117 102 54 285 277 279 279 297 307 297 286 301 316 323
176 176 178 184 185 185 179 176 173 179 181 181 175 179 181 180 176 174 179 179 187 194 163 147 140 124 106 114 130 145 170 194 264 267 259 285 290 324 309 289 294 306 312
Height
1521 1523 1526 1528 1530 1532 1535 1537 1538 1540 1542 1543 1544 1545 1546 1547 1547 1548 1548 1549 1549 1549 1549 1549 1549 1548 1547 1546 1545 1545 1544 1542 1541 1540 1538 1537 1536 1534 1532 1531 1529 1527 1525
1519 1522 1525 1527 1529 1532 1534 1536 1538 1540 1541 1543 1544 1545 1546 1547 1547 1548 1548 1548 1549 1549 1549 1549 1549 1548 1548 1547 1546 1545 1544 1543 1541 1540 1538 1537 1535 1533 1532 1530 1528 1526 1524
1518 1521 1523 1526 1528 1531 1533 1536 1537 1539 1541 1542 1544 1545 1546 1546 1547 1547 1548 1548 1548 1549 1549 1549 1548 1548 1547 1547 1546 1545 1544 1542 1541 1540 1538 1536 1535 1533 1531 1529 1527 1525 1523
1516 1519 1522 1524 1527 1530 1532 1534 1536 1538 1540 1541 1543 1544 1545 1546 1546 1547 1547 1547 1548 1548 1548 1548 1548 1548 1547 1546 1545 1544 1543 1542 1541 1539 1538 1536 1534 1532 1530 1528 1526 1524 1521
1514 1517 1520 1523 1526 1528 1530 1533 1535 1537 1539 1540 1542 1543 1544 1545 1545 1546 1546 1546 1547 1547 1547 1547 1547 1547 1546 1546 1545 1544 1543 1541 1540 1538 1537 1535 1533 1531 1529 1527 1524 1522 1519
1511 1514 1518 1521 1523 1526 1528 1531 1533 1536 1538 1540 1541 1542 1543 1544 1544 1544 1544 1545 1545 1545 1546 1546 1546 1545 1545 1544 1544 1543 1541 1540 1539 1537 1535 1534 1531 1529 1527 1525 1522 1520 1517
1508 1511 1514 1518 1520 1523 1526 1529 1531 1533 1536 1538 1539 1541 1541 1542 1542 1542 1542 1543 1543 1544 1544 1544 1544 1544 1543 1543 1542 1541 1540 1539 1537 1535 1534 1532 1529 1527 1525 1522 1520 1517 1514
1505 1508 1511 1514 1517 1520 1523 1526 1528 1530 1533 1535 1536 1538 1539 1540 1539 1539 1540 1540 1541 1541 1542 1542 1542 1542 1541 1541 1540 1539 1538 1537 1535 1533 1531 1529 1527 1525 1522 1520 1517 1514 1511
1500 1504 1507 1511 1514 1517 1519 1522 1525 1527 1529 1532 1534 1535 1536 1535 1536 1536 1536 1537 1538 1538 1539 1539 1539 1539 1539 1538 1537 1537 1535 1534 1533 1531 1529 1527 1524 1522 1519 1517 1514 1511 1508
1496 1500 1503 1507 1510 1513 1515 1518 1521 1524 1526 1528 1530 1532 1534 1533 1534 1533 1534 1534 1535 1535 1536 1536 1536 1536 1536 1535 1535 1534 1533 1531 1530 1528 1526 1524 1521 1519 1516 1513 1510 1507 1504
1491 1495 1499 1502 1505 1508 1511 1514 1517 1520 1522 1524 1526 1528 1529 1530 1531 1532 1531 1531 1532 1533 1533 1533 1533 1533 1533 1532 1531 1530 1529 1528 1526 1524 1522 1520 1517 1515 1512 1509 1506 1503 1500
1485 1489 1493 1496 1500 1503 1506 1509 1513 1515 1518 1520 1522 1524 1525 1527 1527 1528 1528 1528 1529 1530 1530 1530 1529 1529 1529 1528 1528 1527 1525 1524 1522 1520 1518 1516 1513 1511 1508 1505 1502 1499 1496
1478 1481 1486 1490 1493 1497 1501 1505 1508 1510 1513 1515 1517 1519 1522 1523 1525 1526 1526 1526 1526 1526 1526 1526 1526 1525 1525 1524 1524 1523 1521 1520 1518 1516 1514 1512 1509 1506 1504 1501 1497 1494 1491
1471 1476 1480 1484 1488 1492 1496 1500 1503 1505 1508 1511 1513 1515 1517 1519 1521 1522 1523 1524 1523 1522 1522 1522 1522 1521 1521 1520 1520 1518 1517 1515 1514 1512 1510 1507 1505 1502 1499 1496 1492 1489 1486
1467 1471 1476 1480 1483 1487 1491 1494 1497 1500 1503 1505 1508 1510 1512 1515 1517 1518 1519 1520 1521 1519 1517 1518 1518 1518 1517 1516 1515 1514 1512 1511 1509 1507 1505 1502 1500 1497 1494 1491 1487 1484 1480
1461 1466 1470 1474 1478 1482 1485 1488 1491 1494 1497 1499 1502 1505 1507 1509 1511 1513 1514 1515 1516 1516 1514 1513 1513 1513 1513 1512 1511 1509 1508 1506 1504 1502 1500 1497 1495 1492 1489 1485 1482 1478 1475
1455 1459 1464 1468 1472 1476 1479 1482 1485 1488 1491 1494 1496 1499 1501 1504 1506 1508 1509 1510 1510 1511 1509 1509 1509 1509 1508 1507 1506 1504 1503 1501 1499 1497 1495 1492 1489 1487 1483 1480 1476 1473 1469
1448 1453 1458 1462 1466 1470 1473 1476 1479 1482 1485 1487 1490 1493 1495 1498 1500 1502 1503 1504 1505 1505 1505 1504 1504 1504 1503 1502 1501 1499 1497 1496 1494 1492 1489 1487 1484 1481 1478 1475 1471 1467 1464
1442 1447 1451 1455 1459 1463 1467 1470 1474 1477 1479 1482 1484 1487 1490 1493 1494 1496 1498 1499 1500 1500 1500 1500 1499 1499 1498 1497 1495 1494 1492 1491 1489 1486 1484 1481 1479 1476 1473 1469 1466 1462 1458
1436 1440 1445 1449 1453 1458 1461 1465 1468 1471 1474 1476 1479 1482 1484 1487 1489 1491 1492 1493 1494 1495 1495 1494 1494 1493 1492 1491 1490 1488 1487 1485 1483 1481 1479 1476 1474 1471 1468 1464 1461 1457 1453
1430 1435 1439 1444 1448 1452 1455 1459 1462 1465 1468 1471 1474 1476 1479 1481 1483 1486 1487 1488 1489 1489 1489 1489 1488 1488 1487 1486 1485 1483 1481 1480 1478 1476 1474 1472 1469 1466 1463 1459 1456 1452 1448
1424 1429 1434 1438 1442 1445 1449 1453 1457 1460 1463 1466 1468 1471 1474 1476 1478 1480 1481 1482 1484 1484 1484 1484 1483 1482 1482 1481 1480 1479 1477 1475 1472 1471 1468 1466 1464 1461 1458 1454 1450 1447 1443
1418 1423 1428 1432 1436 1440 1444 1448 1452 1455 1458 1461 1463 1466 1468 1470 1473 1474 1476 1477 1478 1478 1479 1479 1478 1478 1477 1476 1476 1474 1472 1470 1468 1466 1463 1460 1458 1455 1453 1449 1445 1442 1438
1412 1417 1422 1427 1431 1434 1439 1443 1446 1450 1453 1456 1458 1461 1463 1465 1467 1469 1471 1472 1472 1473 1473 1474 1473 1473 1473 1472 1471 1470 1468 1466 1464 1462 1459 1455 1452 1450 1447 1444 1440 1437 1433
1407 1412 1417 1421 1425 1429 1434 1438 1442 1445 1448 1451 1453 1456 1458 1460 1463 1465 1466 1467 1467 1468 1469 1469 1469 1469 1468 1468 1467 1466 1464 1461 1459 1457 1455 1452 1447 1444 1441 1439 1436 1433 1429
1402 1407 1412 1416 1420 1424 1429 1433 1437 1440 1443 1446 1449 1451 1454 1456 1458 1460 1461 1462 1462 1463 1464 1464 1464 1464 1464 1463 1462 1461 1459 1457 1455 1452 1450 1448 1444 1441 1436 1434 1432 1429 1425